Voltar ao catálogo

STARLINK-36129

AtivoComunicaçõesVLEO
NORAD 66874·PAYLOAD·🇺🇸 United States

Lançado Dec 2, 2025 de Cape Canaveral Space Force Station

Loading…

Próximas Passagens (próximas 24 horas)

TLE

AtualizadoSource: CelesTrak SupGP

Época: Sep 14, 2026, 23:04 UTC

1 66874C 25281AC  26257.96159722 -.00021950  00000+0 -79490-3 0  2579
2 66874  43.0030 354.5763 0001527 271.1971  31.1681 15.27594061    10

Acompanhe STARLINK-36129 em tempo real com AllMySat

Download on the App Store